User: anonymous   Login
Location: Unspecified
(0.0000°N, 0.0000°E)
Time: 00:23:56
(UTC+00:00)
Language:

Okean 1-7 - Orbit

View from above orbital plane
View from above orbital plane
View from above satellite
View from above satellite

Ground track
Ground track

The orbit data is extracted from the following two-line orbital elements,

1 23317U 94066A   17231.16793684 +.00000240 +00000-0 +23698-4 0  9997
2 23317 082.5354 059.0830 0018950 212.1637 147.8426 14.87428084235317
Epoch (UTC): 19 August 2017 04:01:49
Eccentricity: 0.0018950
inclination: 82.5354°
perigee height: 593 km
apogee height: 619 km
right ascension of ascending node: 59.0830°
argument of perigee: 212.1637°
revolutions per day: 14.87428084
mean anomaly at epoch: 147.8426°
orbit number at epoch: 23531

The dashed part of the orbit path shows where the satellite is in the earth's shadow,  

DLR